Regional Weather Roundup
Issued by NWS

Home | Current Version | Previous Version | Graphics & Text | Print | Product List | Glossary On
Versions: 1 2 3 4 5 6 7 8 9 10 11 12 13 14 15 16 17 18 19 20 21 22 23 24 25 26 27 28 29 30 31 32 33 34 35 36 37 38 39 40 41 42 43 44 45 46 47 48 49 50
529
ASUS45 KBOU 251310
RWRCO

WEATHER ROUNDUP FOR COLORADO
NATIONAL WEATHER SERVICE DENVER/BOULDER CO
700 AM MDT SUN SEP 25 2016

NOTE: "FAIR" INDICATES FEW OR NO CLOUDS BELOW 12000 FEET WITH NO
SIGNIFICANT WEATHER AND/OR OBSTRUCTIONS TO VISIBILITY.

COZ001>005-013-030-031-251400-
...NORTHWEST COLORADO...

CITY           SKY/WX    TMP DP  RH WIND       PRES   REMARKS
CRAIG          FOG       35  34  96 CALM      30.50R VSB 1/4
HAYDEN         FAIR      34  30  86 CALM      30.49S
MEEKER         FAIR      34  33  96 E5        30.49R WCI  30
MOUNT WERNER   NOT AVBL
STEAMBOAT SPGS CLOUDY    38  38  99 CALM      30.49R
WALDEN           N/A     34  32  93 SE3       30.52R
$$

COZ006>008-011-251400-
...WEST CENTRAL VALLEYS...

CITY           SKY/WX    TMP DP  RH WIND       PRES   REMARKS
GRAND JUNCTION FAIR      42  37  82 CALM      30.42R
MONTROSE       FAIR      39  35  86 SE7       30.47R
EAGLE          CLEAR     36  36 100 CALM      30.52R
RIFLE          FAIR      40  39  97 S3        30.47R
DELTA          NOT AVBL
NUCLA          FAIR      37  34  87 SE9       30.45R
$$

COZ017>023-064>068-251400-
...SOUTHWEST COLORADO...

CITY           SKY/WX    TMP DP  RH WIND       PRES   REMARKS
DURANGO        FAIR      32  28  85 NE5       30.36R WCI  27
CORTEZ         FAIR      33  31  92 N5        30.36R WCI  29
PAGOSA SPRINGS FAIR      40  27  60 CALM      30.41R
TELLURIDE      NOT AVBL
WOLF CREEK PAS FAIR      28  23  80 MISG      30.59R
$$

COZ009-010-012-014-032>034-037-058>063-251400-
...CENTRAL COLORADO...

CITY           SKY/WX    TMP DP  RH WIND       PRES   REMARKS
ASPEN          FAIR      37  36  96 CALM      30.49R
BUENA VISTA    FAIR      29  24  80 CALM      30.51R
COPPER MTN     CLOUDY    28  23  80 MISG      30.59S
BERTHOUD PASS  MOCLDY    19   7  58 NW9       30.59R WCI   9
COTTONWOOD PAS FAIR      37  27  65 S5        30.54R
GUNNISON       FAIR      31  28  89 CALM      30.52R
KREMMLING      FAIR      32  28  86 CALM      30.52R
LEADVILLE      FAIR      27  23  85 N7        30.54R WCI  19
MONARCH PASS   FAIR      27  23  86 E14       30.67R WCI  15
SALIDA         FAIR      32  26  80 CALM      30.57R
SUNLIGHT       MOCLDY    30  30 100 MISG      30.60R
WILKERSON PASS FAIR      28  27  93 E5        30.60R WCI  23
$$

COZ069>075-251400-
...SAN LUIS VALLEY/SANGRE DE CRISTO MOUNTAINS...

CITY           SKY/WX    TMP DP  RH WIND       PRES   REMARKS
ALAMOSA        FAIR      26  23  88 SW5       30.46R WCI  20
LA VETA PASS   MOCLDY    30  28  93 MISG      30.54R
SAGUACHE       NOT AVBL
$$

COZ035-036-038>040-251400-
...NORTHERN COLORADO FRONT RANGE...

CITY           SKY/WX    TMP DP  RH WIND       PRES   REMARKS
DENVER INTL AP MOCLDY    43  32  65 SE6       30.44R
DMNS CITY PARK NOT AVBL
AURORA         MOCLDY    41  32  72 SE8       30.45R
FRONT RANGE AP MOCLDY    46  34  61 CALM      30.45R
ERIE MUNI ARPT FAIR      48  34  59 SE6       30.43R
BOULDER MUN AP FAIR      43  36  75 CALM      30.42R
CENTENNIAL     MOCLDY    44  32  62 SE7       30.45R
BROOMFIELD     MOCLDY    48  36  61 SE7       30.43R
FORT COLLINS   MOCLDY    48  36  61 SE6       30.43R
LONGMONT       CLOUDY    49  38  65 NE5       30.44R
$$

COZ041-046-047-076>085-087-088-251400-
...PIKES PEAK/PALMER DIVIDE AND SOUTHERN FOOTHILLS...

CITY           SKY/WX    TMP DP  RH WIND       PRES   REMARKS
COLO. SPRINGS  FAIR      48  31  51 NW13      30.45R
A. F. ACADEMY  FAIR      38  30  72 N9        30.46R
SCHRIEVER AFB  NOT AVBL
ELLICOTT       NOT AVBL
FALCON         FAIR      41  30  64 N12       30.46R
FORT CARSON    FAIR      48  29  49 N13       30.43R
LIMON          FAIR      44  33  65 N8        30.42R
MONUMENT HILL  FAIR      37  30  75 N5        30.49R
TRINIDAD       FAIR      41  32  70 W6        30.45R
$$

COZ042>045-048>051-090-091-251400-
...NORTHEAST COLORADO...

CITY           SKY/WX    TMP DP  RH WIND       PRES   REMARKS
GREELEY ARPT   CLOUDY    52  34  50 N12       30.42R
AKRON          FAIR      42  34  73 NW13      30.40R
BURLINGTON     MOCLDY    49  38  65 NW13      30.36R
WRAY           NOT AVBL
STERLING       CLOUDY    43  37  81 W3        30.38R
HOLYOKE        FAIR      52  41  66 NW9       30.36R
FORT MORGAN    CLOUDY    49  33  54 NW8       30.42R
$$

COZ086-089-092>099-251400-
...SOUTHEAST COLORADO...

CITY           SKY/WX    TMP DP  RH WIND       PRES   REMARKS
PUEBLO         FAIR      48  32  53 CALM      30.41R
LA JUNTA       FAIR      47  35  63 W9        30.40R
LAMAR          MOCLDY    48  38  68 W7        30.36R
SPRINGFIELD    NOT AVBL
$$




USA.gov is the U.S. government's official web portal to all federal, state and local government web resources and services.